• In Russia
  • List of Countries
  • For 7 days
  • Water Temperature
  • Satellite Maps
  • Weather Map
  • Weather Widgets
  • user-avatar
    Login

    Hourly Weather Igls

    Today, 22 June, Thursday

    Time Temperature Precipitation Wind Pressure Humidity
    00:00 +15°C° 0 mm 1 mps 686 mmHg 87%
    01:00 +15°C° 0 mm 1 mps 686 mmHg 85%
    02:00 +15°C° 0 mm 1 mps 686 mmHg 84%
    03:00 +14°C° 0 mm 1 mps 686 mmHg 84%
    04:00 +14°C° 0 mm 1 mps 686 mmHg 83%
    05:00 +18°C° 0 mm 1 mps 686 mmHg 79%
    06:00 +20°C° 0 mm 1 mps 687 mmHg 75%
    07:00 +23°C° 0 mm 1 mps 688 mmHg 70%
    08:00 +25°C° 0 mm 1 mps 688 mmHg 61%
    09:00 +27°C° 0 mm 1 mps 688 mmHg 53%
    10:00 +29°C° 0 mm 1 mps 689 mmHg 44%
    11:00 +30°C° 0.1 mm 1 mps 689 mmHg 43%
    12:00 +30°C° 0.1 mm 1 mps 689 mmHg 41%
    13:00 +31°C° 0.1 mm 1 mps 689 mmHg 40%
    14:00 +30°C° 0.5 mm 1 mps 688 mmHg 45%
    15:00 +29°C° 0.5 mm 1 mps 688 mmHg 51%
    16:00 +29°C° 0.5 mm 1 mps 688 mmHg 56%
    17:00 +27°C° 0.5 mm 1 mps 687 mmHg 65%
    18:00 +26°C° 0.5 mm 1 mps 687 mmHg 73%
    19:00 +23°C° 0.5 mm 0 mps 687 mmHg 82%
    20:00 +23°C° 0.3 mm 1 mps 687 mmHg 83%
    21:00 +21°C° 0.3 mm 1 mps 687 mmHg 84%
    22:00 +19°C° 0.3 mm 1 mps 687 mmHg 86%
    23:00 +19°C° 0.3 mm 1 mps 686 mmHg 87%

    Tomorrow, 23 June, Friday

    Time Temperature Precipitation Wind Pressure Humidity
    00:00 +18°C° 0.3 mm 1 mps 686 mmHg 87%
    01:00 +16°C° 0.3 mm 2 mps 686 mmHg 88%
    02:00 +16°C° 0 mm 2 mps 686 mmHg 87%
    03:00 +16°C° 0 mm 2 mps 686 mmHg 86%
    04:00 +16°C° 0 mm 2 mps 686 mmHg 86%
    05:00 +18°C° 0 mm 2 mps 686 mmHg 80%
    06:00 +21°C° 0 mm 1 mps 687 mmHg 75%
    07:00 +23°C° 0 mm 1 mps 687 mmHg 70%
    08:00 +25°C° 0 mm 2 mps 687 mmHg 60%
    09:00 +27°C° 0 mm 2 mps 688 mmHg 50%
    10:00 +28°C° 0 mm 3 mps 688 mmHg 41%
    11:00 +29°C° 0.1 mm 3 mps 688 mmHg 42%
    12:00 +29°C° 0.1 mm 3 mps 688 mmHg 43%
    13:00 +29°C° 0.1 mm 4 mps 688 mmHg 44%
    14:00 +29°C° 0.4 mm 3 mps 688 mmHg 49%
    15:00 +28°C° 0.4 mm 3 mps 688 mmHg 54%
    16:00 +27°C° 0.4 mm 3 mps 688 mmHg 59%
    17:00 +26°C° 0.3 mm 2 mps 688 mmHg 66%
    18:00 +25°C° 0.3 mm 2 mps 688 mmHg 74%
    19:00 +23°C° 0.3 mm 1 mps 688 mmHg 82%
    20:00 +21°C° 0 mm 1 mps 687 mmHg 86%
    21:00 +19°C° 0 mm 1 mps 687 mmHg 91%
    22:00 +16°C° 0 mm 1 mps 687 mmHg 95%
    23:00 +15°C° 0 mm 1 mps 687 mmHg 95%

    Day after tomorrow, 24 June, Saturday

    Time Temperature Precipitation Wind Pressure Humidity
    00:00 +15°C° 0 mm 1 mps 687 mmHg 95%
    01:00 +15°C° 0 mm 1 mps 687 mmHg 95%
    02:00 +14°C° 0 mm 1 mps 686 mmHg 94%
    03:00 +14°C° 0 mm 1 mps 686 mmHg 93%
    04:00 +14°C° 0 mm 1 mps 686 mmHg 93%
    05:00 +16°C° 0 mm 1 mps 686 mmHg 86%
    06:00 +18°C° 0 mm 0 mps 687 mmHg 80%
    07:00 +20°C° 0 mm 0 mps 687 mmHg 74%
    08:00 +22°C° 0 mm 0 mps 688 mmHg 65%
    09:00 +26°C° 0 mm 1 mps 688 mmHg 56%
    10:00 +28°C° 0 mm 1 mps 688 mmHg 46%
    11:00 +28°C° 0.4 mm 1 mps 688 mmHg 50%
    12:00 +29°C° 0.4 mm 1 mps 687 mmHg 54%
    13:00 +29°C° 0.4 mm 2 mps 687 mmHg 57%
    14:00 +28°C° 1.1 mm 2 mps 687 mmHg 62%
    15:00 +27°C° 1.1 mm 1 mps 686 mmHg 67%
    16:00 +26°C° 1.1 mm 1 mps 686 mmHg 73%
    17:00 +25°C° 1.9 mm 1 mps 686 mmHg 80%
    18:00 +23°C° 1.9 mm 1 mps 686 mmHg 87%
    19:00 +22°C° 1.9 mm 1 mps 685 mmHg 94%
    20:00 +21°C° 2.8 mm 1 mps 685 mmHg 95%
    21:00 +20°C° 2.8 mm 1 mps 685 mmHg 96%
    22:00 +19°C° 2.8 mm 1 mps 685 mmHg 97%
    23:00 +19°C° 1 mm 1 mps 685 mmHg 97%

    25 June, Sunday

    Time Temperature Precipitation Wind Pressure Humidity
    00:00 +18°C° 1 mm 1 mps 685 mmHg 97%
    01:00 +18°C° 1 mm 1 mps 685 mmHg 96%
    02:00 +16°C° 0.6 mm 1 mps 684 mmHg 96%
    03:00 +16°C° 0.6 mm 1 mps 684 mmHg 96%
    04:00 +15°C° 0.6 mm 1 mps 684 mmHg 96%
    05:00 +16°C° 0.3 mm 1 mps 684 mmHg 94%
    06:00 +19°C° 0.3 mm 1 mps 685 mmHg 91%
    07:00 +20°C° 0.3 mm 1 mps 685 mmHg 89%
    08:00 +21°C° 0.2 mm 1 mps 685 mmHg 83%
    09:00 +22°C° 0.2 mm 1 mps 685 mmHg 76%
    10:00 +23°C° 0.2 mm 1 mps 686 mmHg 70%
    11:00 +24°C° 0.5 mm 1 mps 686 mmHg 69%
    12:00 +24°C° 0.5 mm 2 mps 685 mmHg 69%
    13:00 +24°C° 0.5 mm 2 mps 685 mmHg 69%
    14:00 +24°C° 0.5 mm 2 mps 685 mmHg 70%
    15:00 +24°C° 0.5 mm 2 mps 685 mmHg 71%
    16:00 +24°C° 0.5 mm 2 mps 685 mmHg 72%
    17:00 +23°C° 0.4 mm 2 mps 685 mmHg 77%
    18:00 +21°C° 0.4 mm 2 mps 685 mmHg 81%
    19:00 +20°C° 0.4 mm 1 mps 685 mmHg 86%
    20:00 +19°C° 0.2 mm 1 mps 685 mmHg 90%
    21:00 +18°C° 0.2 mm 1 mps 686 mmHg 93%
    22:00 +16°C° 0.2 mm 1 mps 686 mmHg 97%
    23:00 +15°C° 0.1 mm 1 mps 686 mmHg 97%

    26 June, Monday

    Time Temperature Precipitation Wind Pressure Humidity
    00:00 +15°C° 0.1 mm 1 mps 685 mmHg 97%
    01:00 +15°C° 0.1 mm 1 mps 685 mmHg 97%
    02:00 +13°C° 0 mm 0 mps 685 mmHg 97%
    03:00 +13°C° 0 mm 0 mps 685 mmHg 97%
    04:00 +12°C° 0 mm 0 mps 685 mmHg 97%
    05:00 +14°C° 0 mm 0 mps 685 mmHg 93%
    06:00 +16°C° 0 mm 0 mps 686 mmHg 89%
    07:00 +18°C° 0 mm 0 mps 686 mmHg 84%
    08:00 +21°C° 0 mm 1 mps 686 mmHg 76%
    09:00 +23°C° 0 mm 1 mps 686 mmHg 67%
    10:00 +25°C° 0 mm 1 mps 686 mmHg 59%
    11:00 +26°C° 0.1 mm 2 mps 686 mmHg 57%
    12:00 +27°C° 0.1 mm 2 mps 686 mmHg 56%
    13:00 +28°C° 0.1 mm 2 mps 685 mmHg 54%
    14:00 +27°C° 0.3 mm 2 mps 685 mmHg 57%
    15:00 +27°C° 0.3 mm 2 mps 685 mmHg 60%
    16:00 +26°C° 0.3 mm 2 mps 684 mmHg 64%
    17:00 +25°C° 0.6 mm 2 mps 684 mmHg 70%
    18:00 +24°C° 0.6 mm 2 mps 684 mmHg 77%
    19:00 +23°C° 0.6 mm 1 mps 683 mmHg 84%
    20:00 +21°C° 0.4 mm 2 mps 683 mmHg 87%
    21:00 +19°C° 0.4 mm 2 mps 683 mmHg 91%
    22:00 +18°C° 0.4 mm 2 mps 683 mmHg 94%
    23:00 +18°C° 0.1 mm 2 mps 683 mmHg 94%

    27 June, Tuesday

    Time Temperature Precipitation Wind Pressure Humidity
    00:00 +18°C° 0.1 mm 2 mps 682 mmHg 93%
    01:00 +18°C° 0.1 mm 2 mps 682 mmHg 93%
    02:00 +17°C° 0.1 mm 2 mps 682 mmHg 93%
    03:00 +17°C° 0.1 mm 2 mps 682 mmHg 93%
    04:00 +17°C° 0.1 mm 2 mps 681 mmHg 94%
    05:00 +18°C° 0.2 mm 2 mps 682 mmHg 91%
    06:00 +19°C° 0.2 mm 2 mps 682 mmHg 88%
    07:00 +20°C° 0.2 mm 2 mps 682 mmHg 85%
    08:00 +21°C° 0.4 mm 2 mps 682 mmHg 79%
    09:00 +24°C° 0.4 mm 2 mps 682 mmHg 72%
    10:00 +25°C° 0.4 mm 2 mps 682 mmHg 66%
    11:00 +25°C° 1.1 mm 2 mps 682 mmHg 67%
    12:00 +25°C° 1.1 mm 2 mps 682 mmHg 69%
    13:00 +26°C° 1.1 mm 2 mps 682 mmHg 70%
    14:00 +25°C° 2 mm 2 mps 682 mmHg 74%
    15:00 +24°C° 2 mm 2 mps 682 mmHg 78%
    16:00 +23°C° 2 mm 2 mps 681 mmHg 82%
    17:00 +21°C° 2.1 mm 2 mps 681 mmHg 85%
    18:00 +21°C° 2.1 mm 2 mps 681 mmHg 89%
    19:00 +21°C° 2.1 mm 1 mps 681 mmHg 92%
    20:00 +20°C° 0.5 mm 1 mps 681 mmHg 93%
    21:00 +19°C° 0.5 mm 1 mps 681 mmHg 95%
    22:00 +16°C° 0.5 mm 2 mps 680 mmHg 96%
    23:00 +16°C° 0 mm 2 mps 680 mmHg 96%
    Show more